Kivalina, AK

3:25 AM AKDT on March 24, 2017 (GMT -0800)
Kivalina

Weather History for PAVL - April, 2013

Change the Weather History Date:

Thursday, April 4, 2013

  Actual Average (PAWN) Record (PAWN)
Temperature  
Mean Temperature 12 °F -  
Max Temperature 21 °F 18 °F 39 °F (2016)
Min Temperature 5 °F 3 °F -18 °F (2009)
Degree Days  
Heating Degree Days 53    
Moisture  
Dew Point 3 °F    
Average Humidity 65    
Maximum Humidity 74    
Minimum Humidity 56    
Precipitation  
Precipitation 0.00 in - - ()
Sea Level Pressure  
Sea Level Pressure 30.49 in    
Wind  
Wind Speed 14 mph (NE)    
Max Wind Speed 23 mph    
Max Gust Speed -    
Visibility 10 miles    
Events      
Averages and records for this station are not official NWS values.
T = Trace of Precipitation, MM = Missing Value Source: NWS Daily Summary

Daily Weather History Graph

Daily Weather History Graph

Search for Another Location

Airport or City:

Trip Planner

Search our weather history database for the weather conditions in past years. The results will help you decide how hot, cold, wet, or windy it might be!

Date:

Astronomy

Apr. 04, 2013 Rise Set
Actual Time 7:53 AM AKDT 10:11 PM AKDT
Civil Twilight 6:53 AM AKDT 11:11 PM AKDT
Nautical Twilight 5:27 AM AKDT 12:39 AM AKDT
Astronomical Twilight 3:33 AM AKDT 2:28 AM AKDT
Moon 7:01 AM AKDT (4/4) 2:17 PM AKDT (4/4)
Length of Visible Light 16h 18m
Length of Day
14h 18m
Waning Crescent, 32% of the Moon is Illuminated
Apr 4
Waning Crescent
Apr 10
New
Apr 18
First Quarter
Apr 25
Full
May 2
Last Quarter

Hourly Weather History & Observations

Time (AKDT) Temp. Windchill Dew Point Humidity Pressure Visibility Wind Dir Wind Speed Gust Speed Precip Events Conditions
12:53 AM 10.9 °F -4.7 °F 1.9 °F 67% 30.54 in 10.0 mi ENE 13.8 mph - 0.00 in   Clear
1:53 AM 10.9 °F -7.5 °F 1.9 °F 67% 30.55 in 10.0 mi ENE 19.6 mph - 0.00 in   Clear
2:53 AM 7.0 °F -9.1 °F -0.9 °F 70% 30.56 in 10.0 mi NE 12.7 mph - 0.00 in   Clear
3:53 AM 6.1 °F -11.6 °F -0.9 °F 73% 30.56 in 10.0 mi ENE 15.0 mph - N/A   Clear
4:53 AM 7.0 °F -11.0 °F -2.0 °F 67% 30.55 in 10.0 mi ENE 16.1 mph - N/A   Clear
5:53 AM 7.0 °F -11.0 °F -2.0 °F 67% 30.55 in 10.0 mi ENE 16.1 mph - N/A   Clear
6:53 AM 7.0 °F -9.8 °F -2.0 °F 67% 30.55 in 10.0 mi ENE 13.8 mph - N/A   Clear
7:53 AM 9.0 °F -5.9 °F -2.0 °F 61% 30.56 in 10.0 mi ENE 11.5 mph - N/A   Clear
8:53 AM 5.0 °F -11.6 °F -2.9 °F 70% 30.56 in 10.0 mi ENE 12.7 mph - N/A   Clear
9:53 AM 7.0 °F -9.1 °F -2.0 °F 67% 30.55 in 10.0 mi ENE 12.7 mph - N/A   Clear
10:53 AM 12.0 °F -4.0 °F -0.0 °F 59% 30.54 in 10.0 mi NE 15.0 mph - N/A   Clear
11:53 AM 14.0 °F -2.5 °F 1.9 °F 59% 30.53 in 10.0 mi NE 17.3 mph - N/A   Clear
12:53 PM 15.1 °F 0.5 °F 3.9 °F 61% 30.52 in 10.0 mi NE 13.8 mph - N/A   Clear
1:53 PM 16.0 °F 6.3 °F 6.1 °F 65% 30.51 in 10.0 mi North 6.9 mph - N/A   Clear
2:53 PM 19.0 °F 12.3 °F 7.0 °F 59% 30.49 in 10.0 mi NNE 4.6 mph - N/A   Clear
3:53 PM 17.1 °F 11.7 °F 10.0 °F 74% 30.47 in 10.0 mi ENE 3.5 mph - 0.00 in   Clear
4:53 PM 19.9 °F 8.6 °F 7.0 °F 57% 30.44 in 10.0 mi NNE 10.4 mph - 0.00 in   Clear
5:53 PM 19.9 °F 11.1 °F 9.0 °F 62% 30.42 in 10.0 mi NNE 6.9 mph - N/A   Clear
6:53 PM 19.0 °F 5.6 °F 9.0 °F 65% 30.40 in 10.0 mi NNE 13.8 mph - N/A   Clear
7:53 PM 18.0 °F 3.1 °F 7.0 °F 62% 30.39 in 10.0 mi NE 16.1 mph - N/A   Clear
8:53 PM 12.9 °F -2.2 °F 5.0 °F 71% 30.37 in 10.0 mi NE 13.8 mph - N/A   Clear
9:53 PM 9.0 °F -5.9 °F 1.9 °F 73% 30.36 in 10.0 mi NNE 11.5 mph - N/A   Clear
10:53 PM 15.1 °F -3.3 °F 3.9 °F 61% 30.35 in 10.0 mi NE 23.0 mph - N/A   Clear
11:53 PM 14.0 °F -1.4 °F 1.0 °F 56% 30.35 in 10.0 mi NNE 15.0 mph - N/A   Clear